Total_Precipitation_Accumulation
2.45 2.69 2.41 2.65 2.61 3.41 5.02 5.37 5.14 2.61 3.40 7.00 7.98 5.05 2.01 0.75 0.16 0.08 0.21 0.26 0.43 0.36 0.22 0.31 0.54 0.88 0.74 0.40 0.41 0.62 1.20 2.04 0.87 0.46 0.85 0.64 0.75 1.43 2.04 3.64 2.82 1.67 1.30 0.75
2.64 2.73 3.19 2.85 2.87 3.69 4.84 6.44 4.71 4.50 5.00 5.86 3.95 2.10 1.25 0.66 0.28 0.20 0.29 0.36 0.36 0.49 0.28 0.52 0.29 0.39 0.22 0.12 0.32 0.75 0.93 1.98 1.86 0.82 1.10 1.50 1.76 1.88 2.05 2.48 2.30 1.72 1.83 1.04
3.14 3.03 3.15 3.46 3.38 3.97 5.11 6.92 7.30 7.95 8.42 4.13 1.93 1.72 1.61 1.15 0.44 0.30 0.30 0.42 0.37 0.46 0.69 0.68 0.46 0.24 0.25 0.12 0.18 0.42 1.15 1.81 1.67 1.66 1.39 1.63 1.81 1.39 1.49 2.14 2.74 1.61 0.94 0.54
3.80 3.38 3.64 3.93 4.09 5.19 7.91 8.66 5.53 3.60 4.99 4.02 1.95 1.34 1.39 0.98 0.75 0.43 0.39 0.53 0.39 0.59 0.79 0.68 0.75 0.59 0.27 0.22 0.21 0.32 1.04 1.97 1.37 0.94 0.44 0.40 0.61 0.82 0.86 1.48 1.31 1.35 0.40 0.28
4.97 4.75 4.49 4.74 4.84 6.30 9.71 8.24 3.84 2.03 1.07 0.78 1.39 1.60 1.47 0.86 0.66 0.71 0.71 0.71 0.39 0.44 0.86 0.82 0.77 0.89 1.04 0.63 0.51 0.75 1.18 1.60 0.85 0.68 0.30 0.37 0.58 0.74 0.78 0.81 0.65 0.47 0.24 0.21
5.32 5.72 5.23 4.79 5.17 7.97 10.92 5.36 1.75 2.53 2.13 1.37 1.99 1.58 0.90 0.57 0.44 0.52 0.36 0.50 0.63 0.61 0.53 0.55 0.67 0.67 1.00 1.39 1.17 1.06 1.29 1.76 1.68 1.29 0.37 0.82 1.75 0.79 0.71 1.36 0.77 0.77 1.06 0.87
4.89 4.97 4.94 4.59 5.08 6.21 6.32 2.88 1.98 3.68 3.44 1.46 1.07 0.68 0.54 0.44 0.46 0.68 0.36 0.32 0.60 0.58 0.28 0.56 0.89 0.84 0.87 0.84 0.99 1.25 1.25 1.47 2.22 1.75 1.00 2.35 1.08 0.19 0.21 0.70 1.17 0.95 0.76 0.91
4.35 4.65 4.35 4.28 4.69 4.89 4.38 2.77 3.12 4.02 3.27 1.46 0.83 0.73 0.91 0.83 0.69 0.74 0.77 0.57 0.44 0.61 0.79 2.06 2.42 2.11 1.84 1.32 0.73 0.64 1.09 1.46 2.50 2.16 1.36 0.85 0.45 0.22 0.11 0.23 0.62 0.36 0.60 0.91
3.48 3.70 4.27 3.61 4.08 4.74 4.37 3.27 3.37 4.48 3.95 1.84 0.83 0.91 0.83 1.34 1.61 1.47 1.20 0.79 0.66 1.34 2.70 3.51 2.95 1.87 1.37 1.24 1.02 0.76 0.72 1.21 2.06 2.02 1.93 1.09 0.54 0.08 0.03 0.20 0.94 0.50 0.66 0.79
3.13 2.85 3.66 3.60 3.48 4.69 4.83 3.64 2.99 4.76 5.05 1.66 1.19 1.35 1.20 1.27 1.54 2.14 1.66 1.72 2.03 2.64 4.14 3.70 2.00 1.26 0.82 1.12 1.14 1.20 1.60 2.12 2.64 1.88 1.67 0.78 0.22 0.07 0.14 0.96 1.37 0.67 1.58 1.39
3.11 2.82 3.09 3.16 3.32 3.92 5.16 4.83 3.30 4.54 4.93 2.14 1.17 1.17 0.99 1.29 1.68 2.55 2.18 2.63 2.96 3.58 4.03 3.42 2.62 1.58 1.05 0.86 0.76 0.89 1.36 2.19 2.42 2.54 2.74 1.51 0.25 0.23 0.64 0.68 0.39 0.89 1.46 1.34
3.18 2.77 2.84 3.04 2.97 3.41 4.53 5.92 4.19 3.97 6.29 3.52 1.17 0.89 0.73 0.66 0.93 1.47 2.50 2.55 2.06 2.82 3.21 2.79 2.34 2.16 1.68 1.06 1.08 1.07 1.37 1.54 1.65 1.78 1.69 0.79 0.31 0.35 0.36 0.35 0.59 1.07 1.23 1.10
3.05 2.73 2.64 2.89 2.85 3.07 3.85 5.13 4.23 5.76 6.85 4.44 1.61 1.24 0.78 0.47 0.60 0.96 2.75 1.58 1.59 2.27 2.33 2.86 2.41 2.02 1.35 1.39 1.13 1.09 0.89 0.84 1.49 1.13 0.56 0.37 0.38 0.31 0.24 0.24 0.33 0.96 0.93 0.60
2.93 2.87 2.60 2.69 2.99 3.28 3.66 4.58 4.34 5.89 6.59 5.01 2.10 0.92 0.93 0.86 0.59 0.80 1.03 0.85 1.10 1.67 2.33 3.51 3.05 1.91 1.21 1.19 0.87 0.91 1.23 1.34 1.18 0.99 0.58 0.47 0.32 0.28 0.33 0.38 0.53 0.58 0.86 0.55
3.36 3.13 3.03 3.03 3.39 3.66 3.91 4.22 3.79 4.25 4.48 3.96 2.50 1.13 0.71 0.92 0.85 0.83 0.87 1.12 1.43 1.87 2.91 3.36 2.15 1.06 1.23 0.87 0.88 1.12 0.96 1.42 1.47 1.43 0.74 0.89 0.58 0.62 0.74 0.69 0.52 0.61 0.48 0.31
3.94 3.51 3.31 3.50 3.88 4.46 6.79 8.70 5.31 3.43 3.58 5.45 3.43 2.19 1.00 1.18 1.28 1.42 1.43 1.26 1.78 2.37 2.71 1.93 1.23 0.85 1.76 1.75 0.92 0.55 0.40 0.88 1.35 1.61 1.08 1.08 0.93 0.88 0.54 0.53 0.56 0.61 0.58 0.39
4.19 3.71 2.94 2.99 4.14 5.47 6.80 4.63 3.23 2.36 4.11 6.50 3.86 2.50 1.59 1.46 1.64 1.71 2.40 2.32 2.66 2.42 2.71 1.83 0.78 0.76 2.19 2.00 0.64 0.23 0.31 0.44 0.80 1.48 1.65 1.79 1.32 1.36 0.96 0.47 0.36 0.44 0.28 0.22
4.78 3.93 3.37 3.90 5.49 6.16 4.34 1.75 2.12 2.80 4.85 5.04 4.03 2.78 2.95 2.11 2.44 2.13 1.89 2.78 3.39 3.59 2.73 1.50 0.99 0.99 1.67 1.47 0.16 0.09 0.21 0.25 0.36 0.50 0.41 0.80 0.85 0.66 0.55 0.28 0.11 0.09 0.14 0.18
5.85 5.84 6.20 8.51 9.59 7.45 3.42 2.16 3.41 4.22 6.25 5.53 2.74 1.80 2.97 2.55 2.53 2.62 2.27 2.62 3.77 3.09 2.78 1.47 1.43 1.49 1.44 0.47 0.20 0.19 0.16 0.22 0.26 0.21 0.29 0.30 0.32 0.28 0.20 0.24 0.24 0.29 0.25 0.17
8.12 9.68 11.00 11.10 6.27 3.00 3.68 6.97 7.99 7.89 6.15 3.99 1.91 0.97 2.26 3.07 2.69 3.45 3.77 3.70 2.68 2.55 1.29 1.22 1.64 0.87 0.51 0.40 0.37 0.28 0.17 0.10 0.16 0.39 0.52 0.46 0.33 0.28 0.23 0.24 0.28 0.26 0.22 0.17
9.51 9.10 7.08 5.36 3.69 4.24 5.84 7.30 6.08 4.70 3.37 1.58 0.87 0.73 1.27 1.81 2.45 2.79 3.28 3.64 2.76 2.28 1.06 1.22 1.36 0.91 0.74 0.70 0.66 0.48 0.41 0.24 0.17 0.18 0.20 0.22 0.28 0.36 0.35 0.23 0.16 0.14 0.21 0.34
4.65 4.30 4.88 5.87 5.86 6.05 5.63 4.41 2.93 1.65 0.91 0.65 0.55 0.99 1.50 1.82 2.50 3.51 3.72 3.17 2.67 1.62 1.56 2.12 1.24 1.07 0.72 0.58 0.67 0.41 0.26 0.20 0.17 0.24 0.32 0.35 0.33 0.29 0.37 0.41 0.45 0.53 0.62 0.70
3.43 4.14 5.30 5.51 5.32 4.90 3.22 2.07 1.36 0.83 0.54 0.53 0.59 1.48 1.79 2.03 2.55 3.91 4.11 3.79 2.52 1.86 3.18 2.00 1.24 1.00 1.19 1.03 0.81 0.60 0.42 0.47 0.54 0.42 0.30 0.30 0.29 0.33 0.53 0.74 0.84 0.82 0.78 0.68
4.06 4.16 4.15 3.06 2.58 1.70 0.94 0.67 0.60 0.50 0.50 0.67 1.00 1.61 2.00 2.11 2.56 2.65 2.81 2.38 2.62 2.80 1.93 1.86 1.94 1.51 1.05 0.81 0.85 1.04 1.14 0.92 0.92 1.00 0.64 0.52 0.48 0.48 0.62 0.81 0.88 0.83 0.91 1.03
3.38 2.39 1.91 1.18 1.11 0.80 0.60 0.54 0.52 0.56 0.86 1.41 2.15 2.14 2.20 2.80 3.40 2.24 2.02 2.15 1.93 1.53 1.91 2.20 1.70 1.19 0.92 0.93 0.92 0.94 1.29 1.27 1.17 1.33 1.36 1.21 1.03 0.87 1.12 1.16 1.03 0.89 0.92 0.97
1.96 1.62 1.40 1.22 1.12 0.91 0.85 0.80 0.98 1.08 1.39 1.97 2.74 2.72 2.30 2.63 2.05 2.28 1.64 1.49 1.89 2.10 1.96 1.58 0.98 0.81 0.85 0.86 0.90 0.91 1.07 1.18 1.24 1.24 1.37 1.53 1.61 1.64 1.73 1.72 1.51 1.40 1.21 1.23
1.62 1.37 0.98 1.12 1.23 0.94 0.97 1.02 1.15 1.23 1.88 2.13 2.49 2.73 1.92 1.93 1.84 1.33 1.60 2.19 2.06 1.53 1.22 0.86 0.70 0.84 0.88 0.81 0.75 0.79 0.82 1.02 1.12 1.15 1.25 1.40 1.54 1.46 1.29 1.38 1.52 1.30 1.28 1.25